Flag for Germany Weather past 2 weeks in Apolda, Thuringia, Germany

Now
58 °F

Partly sunny.


Feels Like: 58 °F
Forecast: 43 / 72 °F
Wind: 2 mph from Northeast

Location: Erfurt-Bindersleben

Current Time: Aug 27, 2014 at 11:54:10 AM

Latest Report: Aug 27, 2014 at 11:00 AM


Visibility: 16 mi

Pressure: 29.99 "Hg

Humidity: 67%

Dew point: 47 °F

Location of ApoldaLocation

Historic Weather in Apolda — Graph

°F

Apolda temperature yesterday

Maximum temperature yesterday: 57 °F (at 4:00 PM)
Minimum temperature yesterday: 51 °F (at 7:00 AM)
Average temperature yesterday: 54 °F

Past Weeks' High & Low Weather Summary

 TemperatureHumidityPressure
High71 °F (Aug 13, 2:00 PM)98% (Aug 27, 2:00 AM)30.10 "Hg (Aug 27, 2:00 AM)
Low42 °F (Aug 21, 6:00 AM)36% (Aug 12, 6:00 PM)29.63 "Hg (Aug 13, 4:00 PM)
Average56 °F75%29.90 "Hg
* Reported Aug 12 10:00 AM — Aug 27 10:00 AM, Apolda, Weather by CustomWeather, © 2014

Note: Actual official high and low records may vary slightly from our data, if they occured in-between our weather recording intervals... More about our weather records

Advertising

Apolda weather history for previous 24 hours

 ConditionsComfort  
Time TempWeatherWind HumidityBarometerVisibility
10:00 AM
Aug 27
56 °FScattered clouds.1 mph71%29.98 "Hg11 mi
9:00 AM53 °FPartly sunny.1 mph85%29.97 "Hg9 mi
8:00 AM52 °FPartly sunny.1 mph91%29.94 "Hg6 mi
7:00 AM50 °FPartly sunny.2 mph93%29.91 "Hg6 mi
6:00 AM50 °FPassing clouds.2 mph94%29.89 "Hg6 mi
5:00 AM52 °FFog.2 mph97%29.87 "Hg2 mi
4:00 AM52 °FFog.2 mph98%29.85 "Hg0 mi
3:00 AM53 °FFog.2 mph98%29.84 "Hg0 mi
2:00 AM53 °FFog.2 mph98%29.84 "Hg1 mi
1:00 AM54 °FFog.2 mph97%29.83 "Hg0 mi
12:00 AM54 °FLight rain. Low clouds.1 mph95%29.82 "Hg2 mi
11:00 PM
Aug 26
53 °FOvercast.1 mph96%29.80 "Hg12 mi
10:00 PM54 °FOvercast.1 mph94%29.79 "Hg16 mi
9:00 PM54 °FLight rain. Overcast.1 mph93%29.78 "Hg16 mi
8:00 PM54 °FLight rain. Low clouds.1 mph95%29.78 "Hg9 mi
7:00 PM54 °FLight rain. Low clouds.1 mph93%29.77 "Hg19 mi
6:00 PM55 °FLight rain. Overcast.1 mph90%29.77 "Hg12 mi
5:00 PM56 °FLight rain. Overcast.2 mph85%29.77 "Hg19 mi
4:00 PM57 °FLight rain. Overcast.2 mph78%29.75 "Hg22 mi
3:00 PM57 °FOvercast.2 mph83%29.75 "Hg19 mi
2:00 PM57 °FLight rain. Overcast.2 mph82%29.74 "Hg19 mi
1:00 PM56 °FOvercast.2 mph90%29.73 "Hg19 mi
12:00 PM54 °FLow clouds.2 mph93%29.72 "Hg16 mi
11:00 AM53 °FLow clouds.2 mph94%29.72 "Hg5 mi
Weather by CustomWeather, © 2014

See weather overviewHow to use our weather pages